Year,Month,Day,Hour,Minute,Value (Times are PST for temperature in C)
2009,08,20,00,00,23.50
2009,08,20,00,01,23.60
2009,08,20,00,02,23.60
2009,08,20,00,03,23.60
2009,08,20,00,04,23.70
2009,08,20,00,05,23.60
2009,08,20,00,06,23.60
2009,08,20,00,07,23.60
2009,08,20,00,08,23.50
2009,08,20,00,09,23.50
2009,08,20,00,10,23.40
2009,08,20,00,11,23.30
2009,08,20,00,12,23.00
2009,08,20,00,13,22.80
2009,08,20,00,14,22.50
2009,08,20,00,15,22.30
2009,08,20,00,16,22.10
2009,08,20,00,17,21.90
2009,08,20,00,18,21.80
2009,08,20,00,19,21.70
2009,08,20,00,20,21.60
2009,08,20,00,21,21.50
2009,08,20,00,22,21.40
2009,08,20,00,23,21.30
2009,08,20,00,24,21.30
2009,08,20,00,25,21.20
2009,08,20,00,26,21.10
2009,08,20,00,27,21.00
2009,08,20,00,28,20.90
2009,08,20,00,29,20.80
2009,08,20,00,30,20.70
2009,08,20,00,31,20.60
2009,08,20,00,32,20.60
2009,08,20,00,33,20.50
2009,08,20,00,34,20.40
2009,08,20,00,35,20.40
2009,08,20,00,36,20.40
2009,08,20,00,37,20.40
2009,08,20,00,38,20.30
2009,08,20,00,39,20.30
2009,08,20,00,40,20.30
2009,08,20,00,41,20.30
2009,08,20,00,42,20.30
2009,08,20,00,43,20.40
2009,08,20,00,44,20.30
2009,08,20,00,45,20.30
2009,08,20,00,46,20.30
2009,08,20,00,47,20.30
2009,08,20,00,48,20.30
2009,08,20,00,49,20.30
2009,08,20,00,50,20.30
2009,08,20,00,51,20.30
2009,08,20,00,52,20.20
2009,08,20,00,53,20.20
2009,08,20,00,54,20.20
2009,08,20,00,55,20.20
2009,08,20,00,56,20.20
2009,08,20,00,57,20.20
2009,08,20,00,58,20.20
2009,08,20,00,59,20.20
2009,08,20,01,00,20.20
2009,08,20,01,01,20.20
2009,08,20,01,02,20.20
2009,08,20,01,03,20.20
2009,08,20,01,04,20.20
2009,08,20,01,05,20.20
2009,08,20,01,06,20.20
2009,08,20,01,07,20.30
2009,08,20,01,08,20.30
2009,08,20,01,09,20.40
2009,08,20,01,10,20.50
2009,08,20,01,11,20.50
2009,08,20,01,12,20.60
2009,08,20,01,13,20.70
2009,08,20,01,14,20.70
2009,08,20,01,15,20.80
2009,08,20,01,16,20.80
2009,08,20,01,17,20.90
2009,08,20,01,18,20.90
2009,08,20,01,19,21.00
2009,08,20,01,20,21.00
2009,08,20,01,21,21.10
2009,08,20,01,22,21.10
2009,08,20,01,23,21.10
2009,08,20,01,24,21.10
2009,08,20,01,25,21.10
2009,08,20,01,26,21.20
2009,08,20,01,27,21.20
2009,08,20,01,28,21.20
2009,08,20,01,29,21.20
2009,08,20,01,30,21.20
2009,08,20,01,31,21.20
2009,08,20,01,32,21.20
2009,08,20,01,33,21.20
2009,08,20,01,34,21.20
2009,08,20,01,35,21.20
2009,08,20,01,36,21.20
2009,08,20,01,37,21.20
2009,08,20,01,38,21.20
2009,08,20,01,39,21.20
2009,08,20,01,40,21.20
2009,08,20,01,41,21.20
2009,08,20,01,42,21.20
2009,08,20,01,43,21.20
2009,08,20,01,44,21.20
2009,08,20,01,45,21.20
2009,08,20,01,46,21.20
2009,08,20,01,47,21.20
2009,08,20,01,48,21.20
2009,08,20,01,49,21.20
2009,08,20,01,50,21.20
2009,08,20,01,51,21.20
2009,08,20,01,52,21.30
2009,08,20,01,53,21.30
2009,08,20,01,54,21.30
2009,08,20,01,55,21.30
2009,08,20,01,56,21.30
2009,08,20,01,57,21.40
2009,08,20,01,58,21.40
2009,08,20,01,59,21.40
2009,08,20,02,00,21.40
2009,08,20,02,01,21.40
2009,08,20,02,02,21.40
2009,08,20,02,03,21.40
2009,08,20,02,04,21.30
2009,08,20,02,05,21.30
2009,08,20,02,06,21.30
2009,08,20,02,07,21.30
2009,08,20,02,08,21.20
2009,08,20,02,09,21.20
2009,08,20,02,10,21.20
2009,08,20,02,11,21.20
2009,08,20,02,12,21.20
2009,08,20,02,13,21.20
2009,08,20,02,14,21.20
2009,08,20,02,15,21.20
2009,08,20,02,16,21.20
2009,08,20,02,17,21.20
2009,08,20,02,18,21.20
2009,08,20,02,19,21.20
2009,08,20,02,20,21.20
2009,08,20,02,21,21.20
2009,08,20,02,22,21.20
2009,08,20,02,23,21.20
2009,08,20,02,24,21.20
2009,08,20,02,25,21.20
2009,08,20,02,26,21.20
2009,08,20,02,27,21.20
2009,08,20,02,28,21.10
2009,08,20,02,29,21.10
2009,08,20,02,30,21.10
2009,08,20,02,31,21.00
2009,08,20,02,32,21.00
2009,08,20,02,33,20.90
2009,08,20,02,34,20.80
2009,08,20,02,35,20.80
2009,08,20,02,36,20.80
2009,08,20,02,37,20.70
2009,08,20,02,38,20.70
2009,08,20,02,39,20.70
2009,08,20,02,40,20.70
2009,08,20,02,41,20.70
2009,08,20,02,42,20.70
2009,08,20,02,43,20.80
2009,08,20,02,44,20.80
2009,08,20,02,45,20.80
2009,08,20,02,46,20.80
2009,08,20,02,47,20.80
2009,08,20,02,48,20.90
2009,08,20,02,49,20.90
2009,08,20,02,50,20.90
2009,08,20,02,51,20.90
2009,08,20,02,52,20.90
2009,08,20,02,53,21.00
2009,08,20,02,54,21.00
2009,08,20,02,55,21.00
2009,08,20,02,56,21.10
2009,08,20,02,57,21.10
2009,08,20,02,58,21.10
2009,08,20,02,59,21.10
2009,08,20,03,00,21.10
2009,08,20,03,01,21.10
2009,08,20,03,02,21.10
2009,08,20,03,03,21.10
2009,08,20,03,04,21.10
2009,08,20,03,05,21.20
2009,08,20,03,06,21.20
2009,08,20,03,07,21.20
2009,08,20,03,08,21.30
2009,08,20,03,09,21.30
2009,08,20,03,10,21.30
2009,08,20,03,11,21.30
2009,08,20,03,12,21.30
2009,08,20,03,13,21.30
2009,08,20,03,14,21.30
2009,08,20,03,15,21.30
2009,08,20,03,16,21.30
2009,08,20,03,17,21.30
2009,08,20,03,18,21.30
2009,08,20,03,19,21.40
2009,08,20,03,20,21.40
2009,08,20,03,21,21.40
2009,08,20,03,22,21.40
2009,08,20,03,23,21.40
2009,08,20,03,24,21.40
2009,08,20,03,25,21.50
2009,08,20,03,26,21.50
2009,08,20,03,27,21.60
2009,08,20,03,28,21.60
2009,08,20,03,29,21.70
2009,08,20,03,30,21.70
2009,08,20,03,31,21.70
2009,08,20,03,32,21.70
2009,08,20,03,33,21.60
2009,08,20,03,34,21.60
2009,08,20,03,35,21.60
2009,08,20,03,36,21.50
2009,08,20,03,37,21.50
2009,08,20,03,38,21.50
2009,08,20,03,39,21.40
2009,08,20,03,40,21.40
2009,08,20,03,41,21.40
2009,08,20,03,42,21.40
2009,08,20,03,43,21.40
2009,08,20,03,44,21.40
2009,08,20,03,45,21.40
2009,08,20,03,46,21.40
2009,08,20,03,47,21.40
2009,08,20,03,48,21.40
2009,08,20,03,49,21.40
2009,08,20,03,50,21.40
2009,08,20,03,51,21.40
2009,08,20,03,52,21.30
2009,08,20,03,53,21.30
2009,08,20,03,54,21.30
2009,08,20,03,55,21.30
2009,08,20,03,56,21.20
2009,08,20,03,57,21.20
2009,08,20,03,58,21.20
2009,08,20,03,59,21.20
2009,08,20,04,00,21.20
2009,08,20,04,01,21.20
2009,08,20,04,02,21.20
2009,08,20,04,03,21.20
2009,08,20,04,04,21.20
2009,08,20,04,05,21.30
2009,08,20,04,06,21.30
2009,08,20,04,07,21.30
2009,08,20,04,08,21.30
2009,08,20,04,09,21.30
2009,08,20,04,10,21.30
2009,08,20,04,11,21.30
2009,08,20,04,12,21.30
2009,08,20,04,13,21.30
2009,08,20,04,14,21.30
2009,08,20,04,15,21.20
2009,08,20,04,16,21.30
2009,08,20,04,17,21.30
2009,08,20,04,18,21.30
2009,08,20,04,19,21.30
2009,08,20,04,20,21.20
2009,08,20,04,21,21.20
2009,08,20,04,22,21.20
2009,08,20,04,23,21.20
2009,08,20,04,24,21.20
2009,08,20,04,25,21.20
2009,08,20,04,26,21.20
2009,08,20,04,27,21.20
2009,08,20,04,28,21.20
2009,08,20,04,29,21.30
2009,08,20,04,30,21.30
2009,08,20,04,31,21.30
2009,08,20,04,32,21.30
2009,08,20,04,33,21.30
2009,08,20,04,34,21.40
2009,08,20,04,35,21.40
2009,08,20,04,36,21.40
2009,08,20,04,37,21.50
2009,08,20,04,38,21.50
2009,08,20,04,39,21.50
2009,08,20,04,40,21.50
2009,08,20,04,41,21.50
2009,08,20,04,42,21.50
2009,08,20,04,43,21.60
2009,08,20,04,44,21.60
2009,08,20,04,45,21.60
2009,08,20,04,46,21.60
2009,08,20,04,47,21.60
2009,08,20,04,48,21.60
2009,08,20,04,49,21.60
2009,08,20,04,50,21.60
2009,08,20,04,51,21.60
2009,08,20,04,52,21.60
2009,08,20,04,53,21.60
2009,08,20,04,54,21.60
2009,08,20,04,55,21.60
2009,08,20,04,56,21.60
2009,08,20,04,57,21.60
2009,08,20,04,58,21.60
2009,08,20,04,59,21.60
2009,08,20,05,00,21.50
2009,08,20,05,01,21.50
2009,08,20,05,02,21.40
2009,08,20,05,03,21.40
2009,08,20,05,04,21.30
2009,08,20,05,05,21.30
2009,08,20,05,06,21.30
2009,08,20,05,07,21.20
2009,08,20,05,08,21.20
2009,08,20,05,09,21.20
2009,08,20,05,10,21.20
2009,08,20,05,11,21.20
2009,08,20,05,12,21.20
2009,08,20,05,13,21.20
2009,08,20,05,14,21.20
2009,08,20,05,15,21.20
2009,08,20,05,16,21.20
2009,08,20,05,17,21.10
2009,08,20,05,18,21.10
2009,08,20,05,19,21.00
2009,08,20,05,20,21.00
2009,08,20,05,21,21.00
2009,08,20,05,22,20.90
2009,08,20,05,23,20.90
2009,08,20,05,24,20.90
2009,08,20,05,25,21.00
2009,08,20,05,26,21.00
2009,08,20,05,27,21.10
2009,08,20,05,28,21.10
2009,08,20,05,29,21.10
2009,08,20,05,30,21.20
2009,08,20,05,31,21.20
2009,08,20,05,32,21.20
2009,08,20,05,33,21.30
2009,08,20,05,34,21.30
2009,08,20,05,35,21.30
2009,08,20,05,36,21.40
2009,08,20,05,37,21.40
2009,08,20,05,38,21.40
2009,08,20,05,39,21.40
2009,08,20,05,40,21.50
2009,08,20,05,41,21.40
2009,08,20,05,42,21.50
2009,08,20,05,43,21.50
2009,08,20,05,44,21.50
2009,08,20,05,45,21.40
2009,08,20,05,46,21.40
2009,08,20,05,47,21.40
2009,08,20,05,48,21.40
2009,08,20,05,49,21.30
2009,08,20,05,50,21.30
2009,08,20,05,51,21.30
2009,08,20,05,52,21.30
2009,08,20,05,53,21.30
2009,08,20,05,54,21.30
2009,08,20,05,55,21.30
2009,08,20,05,56,21.30
2009,08,20,05,57,21.30
2009,08,20,05,58,21.30
2009,08,20,05,59,21.20
2009,08,20,06,00,21.20
2009,08,20,06,01,21.20
2009,08,20,06,02,21.10
2009,08,20,06,03,21.10
2009,08,20,06,04,21.10
2009,08,20,06,05,21.00
2009,08,20,06,06,21.00
2009,08,20,06,07,21.00
2009,08,20,06,08,20.90
2009,08,20,06,09,20.90
2009,08,20,06,10,20.80
2009,08,20,06,11,20.80
2009,08,20,06,12,20.80
2009,08,20,06,13,20.70
2009,08,20,06,14,20.70
2009,08,20,06,15,20.70
2009,08,20,06,16,20.60
2009,08,20,06,17,20.60
2009,08,20,06,18,20.60
2009,08,20,06,19,20.50
2009,08,20,06,20,20.50
2009,08,20,06,21,20.40
2009,08,20,06,22,20.40
2009,08,20,06,23,20.40
2009,08,20,06,24,20.30
2009,08,20,06,25,20.30
2009,08,20,06,26,20.30
2009,08,20,06,27,20.30
2009,08,20,06,28,20.20
2009,08,20,06,29,20.20
2009,08,20,06,30,20.20
2009,08,20,06,31,20.10
2009,08,20,06,32,20.10
2009,08,20,06,33,20.10
2009,08,20,06,34,20.00
2009,08,20,06,35,20.00
2009,08,20,06,36,19.90
2009,08,20,06,37,19.90
2009,08,20,06,38,19.90
2009,08,20,06,39,19.90
2009,08,20,06,40,19.90
2009,08,20,06,41,19.90
2009,08,20,06,42,19.90
2009,08,20,06,43,19.90
2009,08,20,06,44,19.90
2009,08,20,06,45,19.80
2009,08,20,06,46,19.80
2009,08,20,06,47,19.80
2009,08,20,06,48,19.80
2009,08,20,06,49,19.80
2009,08,20,06,50,19.80
2009,08,20,06,51,19.80
2009,08,20,06,52,19.80
2009,08,20,06,53,19.80
2009,08,20,06,54,19.80
2009,08,20,06,55,19.80
2009,08,20,06,56,19.80
2009,08,20,06,57,19.90
2009,08,20,06,58,19.90
2009,08,20,06,59,19.90
2009,08,20,07,00,19.90
2009,08,20,07,01,19.90
2009,08,20,07,02,20.00
2009,08,20,07,03,20.00
2009,08,20,07,04,20.00
2009,08,20,07,05,20.00
2009,08,20,07,06,20.10
2009,08,20,07,07,20.10
2009,08,20,07,08,20.20
2009,08,20,07,09,20.20
2009,08,20,07,10,20.20
2009,08,20,07,11,20.20
2009,08,20,07,12,20.10
2009,08,20,07,13,20.10
2009,08,20,07,14,20.00
2009,08,20,07,15,19.90
2009,08,20,07,16,19.80
2009,08,20,07,17,19.70
2009,08,20,07,18,19.60
2009,08,20,07,19,19.60
2009,08,20,07,20,19.50
2009,08,20,07,21,19.50
2009,08,20,07,22,19.40
2009,08,20,07,23,19.30
2009,08,20,07,24,19.30
2009,08,20,07,25,19.20
2009,08,20,07,26,19.10
2009,08,20,07,27,19.00
2009,08,20,07,28,18.90
2009,08,20,07,29,18.80
2009,08,20,07,30,18.70
2009,08,20,07,31,18.60
2009,08,20,07,32,18.50
2009,08,20,07,33,18.40
2009,08,20,07,34,18.40
2009,08,20,07,35,18.30
2009,08,20,07,36,18.30
2009,08,20,07,37,18.30
2009,08,20,07,38,18.30
2009,08,20,07,39,18.30
2009,08,20,07,40,18.30
2009,08,20,07,41,18.40
2009,08,20,07,42,18.40
2009,08,20,07,43,18.40
2009,08,20,07,44,18.50
2009,08,20,07,45,18.60
2009,08,20,07,46,18.60
2009,08,20,07,47,18.70
2009,08,20,07,48,18.80
2009,08,20,07,49,18.80
2009,08,20,07,50,18.80
2009,08,20,07,51,18.80
2009,08,20,07,52,18.70
2009,08,20,07,53,18.60
2009,08,20,07,54,18.60
2009,08,20,07,55,18.50
2009,08,20,07,56,18.50
2009,08,20,07,57,18.40
2009,08,20,07,58,18.50
2009,08,20,07,59,18.60
2009,08,20,08,00,18.70
2009,08,20,08,01,18.80
2009,08,20,08,02,18.80
2009,08,20,08,03,18.90
2009,08,20,08,04,18.90
2009,08,20,08,05,19.00
2009,08,20,08,06,19.10
2009,08,20,08,07,19.10
2009,08,20,08,08,19.10
2009,08,20,08,09,19.10
2009,08,20,08,10,19.10
2009,08,20,08,11,19.10
2009,08,20,08,12,19.20
2009,08,20,08,13,19.20
2009,08,20,08,14,19.20
2009,08,20,08,15,19.20
2009,08,20,08,16,19.20
2009,08,20,08,17,19.20
2009,08,20,08,18,19.30
2009,08,20,08,19,19.30
2009,08,20,08,20,19.30
2009,08,20,08,21,19.40
2009,08,20,08,22,19.40
2009,08,20,08,23,19.40
2009,08,20,08,24,19.50
2009,08,20,08,25,19.50
2009,08,20,08,26,19.60
2009,08,20,08,27,19.60
2009,08,20,08,28,19.70
2009,08,20,08,29,19.80
2009,08,20,08,30,19.90
2009,08,20,08,31,20.00
2009,08,20,08,32,20.10
2009,08,20,08,33,20.20
2009,08,20,08,34,20.30
2009,08,20,08,35,20.50
2009,08,20,08,36,20.60
2009,08,20,08,37,20.70
2009,08,20,08,38,20.80
2009,08,20,08,39,21.00
2009,08,20,08,40,21.10
2009,08,20,08,41,21.20
2009,08,20,08,42,21.30
2009,08,20,08,43,21.30
2009,08,20,08,44,21.40
2009,08,20,08,45,21.50
2009,08,20,08,46,21.60
2009,08,20,08,47,21.70
2009,08,20,08,48,21.70
2009,08,20,08,49,21.80
2009,08,20,08,50,21.80
2009,08,20,08,51,21.80
2009,08,20,08,52,21.80
2009,08,20,08,53,21.80
2009,08,20,08,54,21.80
2009,08,20,08,55,21.80
2009,08,20,08,56,21.80
2009,08,20,08,57,21.80
2009,08,20,08,58,21.80
2009,08,20,08,59,21.80
2009,08,20,09,00,21.80
2009,08,20,09,01,21.80
2009,08,20,09,02,21.80
2009,08,20,09,03,21.70
2009,08,20,09,04,21.70
2009,08,20,09,05,21.70
2009,08,20,09,06,21.70
2009,08,20,09,07,21.60
2009,08,20,09,08,21.60
2009,08,20,09,09,21.50
2009,08,20,09,10,21.40
2009,08,20,09,11,21.30
2009,08,20,09,12,21.30
2009,08,20,09,13,21.30
2009,08,20,09,14,21.40
2009,08,20,09,15,21.50
2009,08,20,09,16,21.60
2009,08,20,09,17,21.70
2009,08,20,09,18,21.80
2009,08,20,09,19,21.90
2009,08,20,09,20,21.90
2009,08,20,09,21,21.90
2009,08,20,09,22,21.90
2009,08,20,09,23,22.00
2009,08,20,09,24,22.00
2009,08,20,09,25,22.10
2009,08,20,09,26,22.10
2009,08,20,09,27,22.10
2009,08,20,09,28,22.00
2009,08,20,09,29,22.10
2009,08,20,09,30,22.20
2009,08,20,09,31,22.20
2009,08,20,09,32,22.20
2009,08,20,09,33,22.20
2009,08,20,09,34,22.10
2009,08,20,09,35,22.10
2009,08,20,09,36,22.10
2009,08,20,09,37,22.10
2009,08,20,09,38,22.20
2009,08,20,09,39,22.20
2009,08,20,09,40,22.20
2009,08,20,09,41,22.10
2009,08,20,09,42,22.10
2009,08,20,09,43,22.10
2009,08,20,09,44,22.20
2009,08,20,09,45,22.20
2009,08,20,09,46,22.20
2009,08,20,09,47,22.20
2009,08,20,09,48,22.20
2009,08,20,09,49,22.20
2009,08,20,09,50,22.30
2009,08,20,09,51,22.30
2009,08,20,09,52,22.30
2009,08,20,09,53,22.40
2009,08,20,09,54,22.50
2009,08,20,09,55,22.60
2009,08,20,09,56,22.80
2009,08,20,09,57,22.90
2009,08,20,09,58,22.90
2009,08,20,09,59,22.90
2009,08,20,10,00,22.90
2009,08,20,10,01,22.90
2009,08,20,10,02,22.80
2009,08,20,10,03,22.80
2009,08,20,10,04,22.80
2009,08,20,10,05,22.70
2009,08,20,10,06,22.70
2009,08,20,10,07,22.80
2009,08,20,10,08,22.80
2009,08,20,10,09,22.90
2009,08,20,10,10,22.90
2009,08,20,10,11,23.00
2009,08,20,10,12,23.00
2009,08,20,10,13,23.00
2009,08,20,10,14,23.00
2009,08,20,10,15,22.90
2009,08,20,10,16,22.90
2009,08,20,10,17,23.00
2009,08,20,10,18,23.00
2009,08,20,10,19,23.00
2009,08,20,10,20,23.10
2009,08,20,10,21,23.20
2009,08,20,10,22,23.30
2009,08,20,10,23,23.30
2009,08,20,10,24,23.40
2009,08,20,10,25,23.40
2009,08,20,10,26,23.50
2009,08,20,10,27,23.60
2009,08,20,10,28,23.70
2009,08,20,10,29,23.70
2009,08,20,10,30,23.70
2009,08,20,10,31,23.70
2009,08,20,10,32,23.60
2009,08,20,10,33,23.60
2009,08,20,10,34,23.70
2009,08,20,10,35,23.60
2009,08,20,10,36,23.70
2009,08,20,10,37,23.80
2009,08,20,10,38,23.90
2009,08,20,10,39,24.00
2009,08,20,10,40,24.20
2009,08,20,10,41,24.40
2009,08,20,10,42,24.50
2009,08,20,10,43,24.50
2009,08,20,10,44,24.60
2009,08,20,10,45,24.70
2009,08,20,10,46,24.70
2009,08,20,10,47,24.70
2009,08,20,10,48,24.50
2009,08,20,10,49,24.40
2009,08,20,10,50,24.30
2009,08,20,10,51,24.30
2009,08,20,10,52,24.20
2009,08,20,10,53,24.30
2009,08,20,10,54,24.40
2009,08,20,10,55,24.30
2009,08,20,10,56,24.40
2009,08,20,10,57,24.50
2009,08,20,10,58,24.50
2009,08,20,10,59,24.60
2009,08,20,11,00,24.50
2009,08,20,11,01,24.50
2009,08,20,11,02,24.50
2009,08,20,11,03,24.50
2009,08,20,11,04,24.50
2009,08,20,11,05,24.40
2009,08,20,11,06,24.50
2009,08,20,11,07,24.50
2009,08,20,11,08,24.40
2009,08,20,11,09,24.40
2009,08,20,11,10,24.50
2009,08,20,11,11,24.70
2009,08,20,11,12,24.80
2009,08,20,11,13,24.90
2009,08,20,11,14,24.90
2009,08,20,11,15,24.80
2009,08,20,11,16,24.80
2009,08,20,11,17,24.80
2009,08,20,11,18,24.90
2009,08,20,11,19,25.00
2009,08,20,11,20,25.10
2009,08,20,11,21,25.10
2009,08,20,11,22,25.20
2009,08,20,11,23,25.20
2009,08,20,11,24,25.10
2009,08,20,11,25,25.10
2009,08,20,11,26,25.10
2009,08,20,11,27,25.10
2009,08,20,11,28,25.10
2009,08,20,11,29,25.10
2009,08,20,11,30,25.20
2009,08,20,11,31,25.20
2009,08,20,11,32,25.20
2009,08,20,11,33,25.20
2009,08,20,11,34,25.40
2009,08,20,11,35,25.40
2009,08,20,11,36,25.40
2009,08,20,11,37,25.50
2009,08,20,11,38,25.60
2009,08,20,11,39,25.70
2009,08,20,11,40,25.60
2009,08,20,11,41,25.60
2009,08,20,11,42,25.60
2009,08,20,11,43,25.50
2009,08,20,11,44,25.50
2009,08,20,11,45,25.40
2009,08,20,11,46,25.30
2009,08,20,11,47,25.30
2009,08,20,11,48,25.20
2009,08,20,11,49,25.20
2009,08,20,11,50,25.20
2009,08,20,11,51,25.20
2009,08,20,11,52,25.20
2009,08,20,11,53,25.20
2009,08,20,11,54,25.10
2009,08,20,11,55,25.10
2009,08,20,11,56,25.10
2009,08,20,11,57,25.10
2009,08,20,11,58,25.10
2009,08,20,11,59,25.20
2009,08,20,12,00,25.30
2009,08,20,12,01,25.30
2009,08,20,12,02,25.30
2009,08,20,12,03,25.30
2009,08,20,12,04,25.30
2009,08,20,12,05,25.20
2009,08,20,12,06,25.10
2009,08,20,12,07,25.00
2009,08,20,12,08,25.00
2009,08,20,12,09,25.00
2009,08,20,12,10,25.00
2009,08,20,12,11,25.00
2009,08,20,12,12,25.00
2009,08,20,12,13,24.90
2009,08,20,12,14,24.90
2009,08,20,12,15,24.90
2009,08,20,12,16,25.00
2009,08,20,12,17,25.10
2009,08,20,12,18,25.00
2009,08,20,12,19,24.90
2009,08,20,12,20,24.90
2009,08,20,12,21,24.90
2009,08,20,12,22,25.00
2009,08,20,12,23,25.10
2009,08,20,12,24,25.20
2009,08,20,12,25,25.30
2009,08,20,12,26,25.30
2009,08,20,12,27,25.30
2009,08,20,12,28,25.30
2009,08,20,12,29,25.30
2009,08,20,12,30,25.20
2009,08,20,12,31,25.20
2009,08,20,12,32,25.20
2009,08,20,12,33,25.20
2009,08,20,12,34,25.20
2009,08,20,12,35,25.20
2009,08,20,12,36,25.30
2009,08,20,12,37,25.40
2009,08,20,12,38,25.50
2009,08,20,12,39,25.60
2009,08,20,12,40,25.60
2009,08,20,12,41,25.70
2009,08,20,12,42,25.80
2009,08,20,12,43,25.80
2009,08,20,12,44,25.60
2009,08,20,12,45,25.60
2009,08,20,12,46,25.50
2009,08,20,12,47,25.40
2009,08,20,12,48,25.30
2009,08,20,12,49,25.20
2009,08,20,12,50,25.10
2009,08,20,12,51,25.10
2009,08,20,12,52,25.10
2009,08,20,12,53,25.10
2009,08,20,12,54,25.10
2009,08,20,12,55,25.10
2009,08,20,12,56,25.10
2009,08,20,12,57,25.10
2009,08,20,12,58,25.10
2009,08,20,12,59,25.20
2009,08,20,13,00,25.20
2009,08,20,13,01,25.20
2009,08,20,13,02,25.20
2009,08,20,13,03,25.20
2009,08,20,13,04,25.30
2009,08,20,13,05,25.30
2009,08,20,13,06,25.30
2009,08,20,13,07,25.20
2009,08,20,13,08,25.20
2009,08,20,13,09,25.10
2009,08,20,13,10,25.10
2009,08,20,13,11,25.20
2009,08,20,13,12,25.10
2009,08,20,13,13,25.10
2009,08,20,13,14,25.10
2009,08,20,13,15,25.20
2009,08,20,13,16,25.30
2009,08,20,13,17,25.30
2009,08,20,13,18,25.20
2009,08,20,13,19,25.20
2009,08,20,13,20,25.20
2009,08,20,13,21,25.20
2009,08,20,13,22,25.10
2009,08,20,13,23,25.10
2009,08,20,13,24,25.10
2009,08,20,13,25,25.20
2009,08,20,13,26,25.20
2009,08,20,13,27,25.20
2009,08,20,13,28,25.20
2009,08,20,13,29,25.20
2009,08,20,13,30,25.30
2009,08,20,13,31,25.30
2009,08,20,13,32,25.30
2009,08,20,13,33,25.30
2009,08,20,13,34,25.30
2009,08,20,13,35,25.10
2009,08,20,13,36,24.90
2009,08,20,13,37,24.80
2009,08,20,13,38,24.80
2009,08,20,13,39,24.80
2009,08,20,13,40,24.90
2009,08,20,13,41,25.00
2009,08,20,13,42,25.00
2009,08,20,13,43,25.00
2009,08,20,13,44,25.00
2009,08,20,13,45,25.00
2009,08,20,13,46,24.90
2009,08,20,13,47,24.90
2009,08,20,13,48,25.00
2009,08,20,13,49,25.10
2009,08,20,13,50,25.20
2009,08,20,13,51,25.20
2009,08,20,13,52,25.20
2009,08,20,13,53,25.20
2009,08,20,13,54,25.10
2009,08,20,13,55,24.90
2009,08,20,13,56,24.90
2009,08,20,13,57,24.90
2009,08,20,13,58,25.00
2009,08,20,13,59,25.20
2009,08,20,14,00,25.30
2009,08,20,14,01,25.40
2009,08,20,14,02,25.40
2009,08,20,14,03,25.40
2009,08,20,14,04,25.30
2009,08,20,14,05,25.20
2009,08,20,14,06,25.20
2009,08,20,14,07,25.10
2009,08,20,14,08,24.90
2009,08,20,14,09,24.80
2009,08,20,14,10,24.90
2009,08,20,14,11,24.90
2009,08,20,14,12,24.90
2009,08,20,14,13,24.80
2009,08,20,14,14,24.80
2009,08,20,14,15,24.90
2009,08,20,14,16,24.90
2009,08,20,14,17,24.90
2009,08,20,14,18,24.90
2009,08,20,14,19,24.90
2009,08,20,14,20,24.90
2009,08,20,14,21,24.80
2009,08,20,14,22,24.80
2009,08,20,14,23,24.70
2009,08,20,14,24,24.60
2009,08,20,14,25,24.50
2009,08,20,14,26,24.50
2009,08,20,14,27,24.50
2009,08,20,14,28,24.60
2009,08,20,14,29,24.60
2009,08,20,14,30,24.50
2009,08,20,14,31,24.40
2009,08,20,14,32,24.30
2009,08,20,14,33,24.30
2009,08,20,14,34,24.20
2009,08,20,14,35,24.10
2009,08,20,14,36,24.20
2009,08,20,14,37,24.20
2009,08,20,14,38,24.20
2009,08,20,14,39,24.20
2009,08,20,14,40,24.20
2009,08,20,14,41,24.20
2009,08,20,14,42,24.10
2009,08,20,14,43,24.00
2009,08,20,14,44,24.00
2009,08,20,14,45,24.10
2009,08,20,14,46,24.10
2009,08,20,14,47,24.20
2009,08,20,14,48,24.20
2009,08,20,14,49,24.20
2009,08,20,14,50,24.20
2009,08,20,14,51,24.10
2009,08,20,14,52,24.10
2009,08,20,14,53,24.10
2009,08,20,14,54,24.10
2009,08,20,14,55,24.10
2009,08,20,14,56,24.00
2009,08,20,14,57,24.00
2009,08,20,14,58,23.90
2009,08,20,14,59,23.90
2009,08,20,15,00,23.90
2009,08,20,15,01,23.90
2009,08,20,15,02,24.00
2009,08,20,15,03,24.20
2009,08,20,15,04,24.20
2009,08,20,15,05,24.10
2009,08,20,15,06,24.00
2009,08,20,15,07,23.90
2009,08,20,15,08,23.80
2009,08,20,15,09,23.80
2009,08,20,15,10,23.80
2009,08,20,15,11,23.80
2009,08,20,15,12,23.90
2009,08,20,15,13,24.00
2009,08,20,15,14,24.10
2009,08,20,15,15,24.10
2009,08,20,15,16,24.20
2009,08,20,15,17,24.20
2009,08,20,15,18,24.20
2009,08,20,15,19,24.10
2009,08,20,15,20,24.00
2009,08,20,15,21,23.90
2009,08,20,15,22,23.90
2009,08,20,15,23,23.70
2009,08,20,15,24,23.60
2009,08,20,15,25,23.40
2009,08,20,15,26,23.30
2009,08,20,15,27,23.30
2009,08,20,15,28,23.40
2009,08,20,15,29,23.40
2009,08,20,15,30,23.50
2009,08,20,15,31,23.50
2009,08,20,15,32,23.50
2009,08,20,15,33,23.50
2009,08,20,15,34,23.50
2009,08,20,15,35,23.50
2009,08,20,15,36,23.50
2009,08,20,15,37,23.50
2009,08,20,15,38,23.40
2009,08,20,15,39,23.30
2009,08,20,15,40,23.20
2009,08,20,15,41,23.30
2009,08,20,15,42,23.30
2009,08,20,15,43,23.30
2009,08,20,15,44,23.30
2009,08,20,15,45,23.30
2009,08,20,15,46,23.30
2009,08,20,15,47,23.30
2009,08,20,15,48,23.30
2009,08,20,15,49,23.40
2009,08,20,15,50,23.50
2009,08,20,15,51,23.50
2009,08,20,15,52,23.50
2009,08,20,15,53,23.50
2009,08,20,15,54,23.50
2009,08,20,15,55,23.50
2009,08,20,15,56,23.50
2009,08,20,15,57,23.40
2009,08,20,15,58,23.50
2009,08,20,15,59,23.50
2009,08,20,16,00,23.40
2009,08,20,16,01,23.40
2009,08,20,16,02,23.50
2009,08,20,16,03,23.60
2009,08,20,16,04,23.60
2009,08,20,16,05,23.70
2009,08,20,16,06,23.70
2009,08,20,16,07,23.70
2009,08,20,16,08,23.60
2009,08,20,16,09,23.60
2009,08,20,16,10,23.60
2009,08,20,16,11,23.70
2009,08,20,16,12,23.70
2009,08,20,16,13,23.60
2009,08,20,16,14,23.60
2009,08,20,16,15,23.70
2009,08,20,16,16,23.70
2009,08,20,16,17,23.60
2009,08,20,16,18,23.60
2009,08,20,16,19,23.60
2009,08,20,16,20,23.60
2009,08,20,16,21,23.60
2009,08,20,16,22,23.50
2009,08,20,16,23,23.50
2009,08,20,16,24,23.40
2009,08,20,16,25,23.40
2009,08,20,16,26,23.40
2009,08,20,16,27,23.40
2009,08,20,16,28,23.40
2009,08,20,16,29,23.40
2009,08,20,16,30,23.40
2009,08,20,16,31,23.40
2009,08,20,16,32,23.40
2009,08,20,16,33,23.40
2009,08,20,16,34,23.40
2009,08,20,16,35,23.30
2009,08,20,16,36,23.40
2009,08,20,16,37,23.40
2009,08,20,16,38,23.40
2009,08,20,16,39,23.40
2009,08,20,16,40,23.40
2009,08,20,16,41,23.40
2009,08,20,16,42,23.50
2009,08,20,16,43,23.50
2009,08,20,16,44,23.60
2009,08,20,16,45,23.70
2009,08,20,16,46,23.70
2009,08,20,16,47,23.80
2009,08,20,16,48,23.80
2009,08,20,16,49,23.80
2009,08,20,16,50,23.80
2009,08,20,16,51,23.70
2009,08,20,16,52,23.80
2009,08,20,16,53,23.90
2009,08,20,16,54,23.90
2009,08,20,16,55,24.00
2009,08,20,16,56,24.20
2009,08,20,16,57,24.30
2009,08,20,16,58,24.30
2009,08,20,16,59,24.20
2009,08,20,17,00,24.30
2009,08,20,17,01,24.30
2009,08,20,17,02,24.30
2009,08,20,17,03,24.40
2009,08,20,17,04,24.60
2009,08,20,17,05,24.60
2009,08,20,17,06,24.70
2009,08,20,17,07,24.80
2009,08,20,17,08,24.70
2009,08,20,17,09,24.80
2009,08,20,17,10,24.70
2009,08,20,17,11,24.60
2009,08,20,17,12,24.60
2009,08,20,17,13,24.60
2009,08,20,17,14,24.50
2009,08,20,17,15,24.40
2009,08,20,17,16,24.20
2009,08,20,17,17,24.10
2009,08,20,17,18,24.00
2009,08,20,17,19,24.00